OBJECT AF, 69009

Orbit data source: Space-Track

You're viewing an uncataloged RSO

Recently launched and/or uncataloged RSOs may have evolving metadata. Metadata may include the following, but is not limited to: Owner, Manufacturer, Bus, Motor, and Mission.

OBJECT AF, 69009 is a satellite in SSO that was launched on Sun, 03 May 2026 UTC via an FALCON 9 launch vehicle from the Air Force Western Test Range (AFWTR). Unknown objects in Earth's orbit typically refer to objects detected orbiting the Earth but have not yet been identified or cataloged. These objects could be anything from previously untracked satellites, spent rocket stages, debris from satellite collisions, or even natural meteoroids temporarily captured by Earth's gravity.

Loading next visibility...
Identifier
69009, 2026-100AF
Orbit
SSO
Country
Flag of TBDTBD
Related business
None
Manufacturer
Unknown
Mission
Operational Amateur Science
Bus & Motor
Unknown
Mass
Unknown
Launch date (UTC)
2026-05-03 (4 months ago)
Launch vehicle
FALCON 9
Launch site
Air Force Western Test Range (AFWTR)
Object type
Unknown
Shape & HBR
Box, 1.1 m
Radar Cross Section
0.035 m², Medium (>0.1 m² and < 1m²)

Expand to show TLE details & history
Last TLE update: 21 hours ago

TLE from 21 hours ago
0 OBJECT AF
1 69009U 26100AF  26237.25695925  .00011091  00000-0  49576-3 0  9992
2 69009  97.3940 133.8088 0006657  95.9453 264.2541 15.21472888 17309
Epoch: 2026-08-25T06:10Z
TLE epoch observation values (Epoch: 2026-08-25T06:10:01.279Z)
Latitude
-0.00009°
Longitude
67.77657°
Altitude
504.951 km
Speed
7.611 km/s
True Right ascension
08h 55m 14s
True Declination
0° 00' 00"
Sunlit
Object was in daylight at epoch
Visualization orbit readout
Latitude
Unknown
Longitude
Unknown
Altitude
Unknown
Speed
Unknown
Apparent Right ascension
Unknown
Apparent Declination
Unknown
Sunlit
N/A
Visualization observer readout
Local Sidereal Time
18:03:47
Azimuth
Unknown
Elevation
Unknown
Doppler factor
Unknown
Orbital elements
Apogee altitude
502.938 km
Perigee altitude
493.783 km
Semi-major axis
6,876.497 km
Eccentricity
0.00067
Inclination
97.394°
RAAN
133.8088°
Arg. of periapsis
95.9453°
True anomaly
264.17821°
Mean anomaly
264.2541°
Eccentric anomaly
264.21615°
Mean motion
3.80621 °/min
Orbital period
94.58 mins
BSTAR
0.00049576
Loading maneuver chart data...
Computing Atmospheric mass density...
Loading historical data...
Loading historical data...
Loading historical data...
Loading historical data...
Loading historical data...
Loading historical data...
Loading historical data...

Documentation

Showing up to 5 results
|